Nashville, TN

6:17 PM CDT on October 23, 2019 (GMT -0500)
Nashville International

Weather History for KBNA - May, 2019

Change the Weather History Date:

Friday, May 17, 2019

  Actual Average Record
Temperature  
Mean Temperature 78 °F 68 °F  
Max Temperature 89 °F 78 °F 93 °F (1962)
Min Temperature 67 °F 57 °F 42 °F (1983)
Degree Days  
Heating Degree Days 0    
Month to date heating degree days 27  
Since 1 July heating degree days 3220  
Cooling Degree Days 13    
Month to date cooling degree days 71  
Year to date cooling degree days 130  
Growing Degree Days 28 (Base 50)    
Moisture  
Dew Point 61 °F    
Average Humidity 55    
Maximum Humidity 78    
Minimum Humidity 32    
Precipitation  
Precipitation 0.00 in 0.17 in 3.25 in (1980)
Month to date precipitation 1.51 3.22  
Year to date precipitation 29.39 19.02  
Sea Level Pressure  
Sea Level Pressure 29.94 in    
Wind  
Wind Speed 5 mph ()    
Max Wind Speed 15 mph    
Max Gust Speed 21 mph    
Visibility 10.0 miles    
Events      
T = Trace of Precipitation, MM = Missing Value Source: Averaged Metar Reports

Daily Weather History Graph

Daily Weather History Graph

Search for Another Location

Airport or City:

Astronomy

May. 17, 2019 Rise Set
Actual Time 5:39 AM CDT 7:47 PM CDT
Civil Twilight 5:10 AM CDT 8:16 PM CDT
Nautical Twilight 4:35 AM CDT 8:51 PM CDT
Astronomical Twilight 3:57 AM CDT 9:29 PM CDT
Moon 6:38 PM CDT (5/17) 5:05 AM CDT (5/17)
Length of Visible Light 15h 05m
Length of Day
14h 08m
Waxing Gibbous, 98% of the Moon is Illuminated
May 17
Waxing Gibbous
May 18
Full
May 26
Last Quarter
Jun 3
New
Jun 10
First Quarter

Hourly Weather History & Observations

Time (CDT) Temp. Heat Index Dew Point Humidity Pressure Visibility Wind Dir Wind Speed Gust Speed Precip Events Conditions
12:53 AM 73.9 °F - 64.0 °F 71% 29.88 in 10.0 mi SW 4.6 mph - N/A   Mostly Cloudy
1:53 AM 75.0 °F - 62.1 °F 64% 29.88 in 10.0 mi WSW 4.6 mph - N/A   Mostly Cloudy
2:53 AM 75.0 °F - 61.0 °F 62% 29.91 in 10.0 mi Calm Calm - N/A   Mostly Cloudy
3:53 AM 72.0 °F - 61.0 °F 68% 29.91 in 10.0 mi SSW 4.6 mph - N/A   Mostly Cloudy
4:53 AM 72.0 °F - 61.0 °F 68% 29.91 in 10.0 mi Calm Calm - N/A   Mostly Cloudy
5:53 AM 72.0 °F - 61.0 °F 68% 29.94 in 10.0 mi Calm Calm - N/A   Mostly Cloudy
6:53 AM 70.0 °F - 63.0 °F 78% 29.96 in 10.0 mi South 4.6 mph - N/A   Scattered Clouds
7:53 AM 78.1 °F - 63.0 °F 60% 29.98 in 10.0 mi West 3.5 mph - N/A   Scattered Clouds
8:53 AM 81.0 °F 81.9 °F 62.1 °F 52% 29.98 in 10.0 mi WNW 8.1 mph - N/A   Scattered Clouds
9:53 AM 82.0 °F 83.0 °F 62.1 °F 51% 29.98 in 10.0 mi WNW 10.4 mph - N/A   Mostly Cloudy
10:53 AM 84.0 °F 84.5 °F 62.1 °F 47% 29.98 in 10.0 mi West 12.7 mph 18.4 mph N/A   Mostly Cloudy
11:53 AM 87.1 °F 87.5 °F 62.1 °F 43% 29.99 in 10.0 mi West 11.5 mph - N/A   Scattered Clouds
12:53 PM 87.1 °F 87.0 °F 61.0 °F 41% 29.97 in 10.0 mi WSW 8.1 mph - N/A   Scattered Clouds
1:53 PM 87.1 °F 86.1 °F 57.9 °F 37% 29.96 in 10.0 mi West 8.1 mph - N/A   Partly Cloudy
2:53 PM 88.0 °F 87.6 °F 60.1 °F 39% 29.95 in 10.0 mi SW 8.1 mph - N/A   Scattered Clouds
3:53 PM 88.0 °F 86.1 °F 55.0 °F 32% 29.93 in 10.0 mi Variable 5.8 mph - N/A   Scattered Clouds
4:53 PM 88.0 °F 87.1 °F 59.0 °F 37% 29.92 in 10.0 mi WSW 8.1 mph - N/A   Scattered Clouds
5:53 PM 87.1 °F 86.7 °F 60.1 °F 40% 29.92 in 10.0 mi SSW 8.1 mph - N/A   Scattered Clouds
6:53 PM 84.9 °F 84.8 °F 60.1 °F 43% 29.93 in 10.0 mi WSW 4.6 mph - N/A   Partly Cloudy
7:53 PM 82.0 °F 82.4 °F 60.1 °F 47% 29.93 in 10.0 mi WSW 3.5 mph - N/A   Scattered Clouds
8:53 PM 75.9 °F - 62.1 °F 62% 29.93 in 10.0 mi South 3.5 mph - N/A   Partly Cloudy
9:53 PM 73.9 °F - 63.0 °F 68% 29.94 in 10.0 mi South 4.6 mph - N/A   Partly Cloudy
10:53 PM 72.0 °F - 63.0 °F 73% 29.96 in 10.0 mi South 4.6 mph - N/A   Partly Cloudy
11:53 PM 71.1 °F - 63.0 °F 75% 29.96 in 10.0 mi South 5.8 mph - N/A   Partly Cloudy